| time (UTC) | temp F | wind direction | speed MPH | gust MPH | rain 1hr in | rain 24hr in | rain mn in | humidity % | barometer mb |
| 20260509131717 | 51 | 90 | 3.0 | 6.0 | 0.00 | 0.00 | 0.00 | 80 | 1022.6 |
| 20260509130736 | 52 | 23 | 3.0 | 5.0 | 0.00 | 0.00 | 0.00 | 78 | 1022.3 |
| 20260509125736 | 53 | 338 | 2.0 | 4.0 | 0.00 | 0.00 | 0.00 | 75 | 1022.5 |
| 20260509124716 | 55 | 0.0 | 2.0 | 0.00 | 0.00 | 0.00 | 72 | 1022.4 | |
| 20260509123716 | 56 | 45 | 1.0 | 2.0 | 0.00 | 0.00 | 0.00 | 73 | 1022.5 |
| 20260509122717 | 56 | 180 | 2.0 | 4.0 | 0.00 | 0.00 | 0.00 | 73 | 1022.6 |
| 20260509121716 | 56 | 68 | 2.0 | 5.0 | 0.00 | 0.00 | 0.00 | 73 | 1022.7 |
| 20260509120736 | 56 | 113 | 3.0 | 8.0 | 0.00 | 0.00 | 0.00 | 73 | 1022.6 |
| 20260509115716 | 56 | 135 | 2.0 | 4.0 | 0.00 | 0.00 | 0.00 | 72 | 1022.6 |
| 20260509114716 | 56 | 203 | 4.0 | 10.0 | 0.00 | 0.00 | 0.00 | 71 | 1022.6 |
| 20260509113716 | 56 | 158 | 4.0 | 8.0 | 0.00 | 0.00 | 0.00 | 71 | 1022.6 |
| 20260509112716 | 56 | 158 | 3.0 | 4.0 | 0.00 | 0.00 | 0.00 | 70 | 1022.3 |
| 20260509111737 | 57 | 135 | 2.0 | 4.0 | 0.00 | 0.00 | 0.00 | 69 | 1022.0 |
| 20260509110716 | 57 | 135 | 2.0 | 3.0 | 0.00 | 0.00 | 0.00 | 68 | 1021.8 |
| 20260509105736 | 57 | 135 | 1.0 | 3.0 | 0.00 | 0.00 | 0.00 | 67 | 1021.6 |
| 20260509104716 | 58 | 248 | 6.0 | 12.0 | 0.00 | 0.00 | 0.00 | 66 | 1021.5 |
| 20260509103736 | 57 | 225 | 3.0 | 4.0 | 0.00 | 0.00 | 0.00 | 66 | 1021.5 |
| 20260509102716 | 57 | 225 | 3.0 | 6.0 | 0.00 | 0.00 | 0.00 | 67 | 1021.6 |
| 20260509101716 | 57 | 315 | 3.0 | 6.0 | 0.00 | 0.00 | 0.00 | 68 | 1021.4 |
| 20260509100817 | 57 | 180 | 3.0 | 5.0 | 0.00 | 0.00 | 0.00 | 69 | 1021.5 |
| 20260509095716 | 56 | 113 | 4.0 | 9.0 | 0.00 | 0.00 | 0.00 | 70 | 1021.7 |
| 20260509094716 | 56 | 203 | 3.0 | 4.0 | 0.00 | 0.00 | 0.00 | 70 | 1021.6 |
| 20260509093737 | 57 | 180 | 2.0 | 3.0 | 0.00 | 0.00 | 0.00 | 69 | 1021.5 |
| 20260509092716 | 56 | 203 | 1.0 | 4.0 | 0.00 | 0.00 | 0.00 | 70 | 1021.5 |
| 20260509091716 | 56 | 45 | 2.0 | 3.0 | 0.00 | 0.00 | 0.00 | 70 | 1021.5 |
| 20260509090756 | 57 | 45 | 1.0 | 2.0 | 0.00 | 0.00 | 0.00 | 69 | 1021.3 |
| 20260509085716 | 57 | 0 | 3.0 | 4.0 | 0.00 | 0.00 | 0.00 | 69 | 1021.3 |
| 20260509084716 | 57 | 293 | 2.0 | 3.0 | 0.00 | 0.00 | 0.00 | 69 | 1021.3 |
| 20260509083717 | 57 | 225 | 2.0 | 3.0 | 0.00 | 0.00 | 0.00 | 70 | 1021.2 |
| 20260509082716 | 57 | 248 | 1.0 | 4.0 | 0.00 | 0.00 | 0.00 | 70 | 1021.2 |
| 20260509081716 | 57 | 293 | 4.0 | 7.0 | 0.00 | 0.00 | 0.00 | 70 | 1021.2 |
| 20260509080716 | 57 | 248 | 2.0 | 5.0 | 0.00 | 0.00 | 0.00 | 70 | 1021.0 |
| 20260509075716 | 57 | 158 | 3.0 | 9.0 | 0.00 | 0.00 | 0.00 | 70 | 1021.1 |
| 20260509074736 | 58 | 225 | 1.0 | 2.0 | 0.00 | 0.00 | 0.00 | 69 | 1020.9 |
| 20260509073716 | 58 | 135 | 2.0 | 3.0 | 0.00 | 0.00 | 0.00 | 69 | 1020.8 |
| 20260509072716 | 58 | 180 | 1.0 | 2.0 | 0.00 | 0.00 | 0.00 | 68 | 1020.7 |
| 20260509071716 | 58 | 203 | 5.0 | 9.0 | 0.00 | 0.00 | 0.00 | 68 | 1020.4 |
| 20260509070736 | 59 | 158 | 3.0 | 7.0 | 0.00 | 0.00 | 0.00 | 67 | 1020.3 |
| 20260509065716 | 59 | 203 | 5.0 | 7.0 | 0.00 | 0.00 | 0.00 | 66 | 1020.0 |
| 20260509064756 | 59 | 0.0 | 1.0 | 0.00 | 0.00 | 0.00 | 67 | 1019.8 | |
| 20260509063716 | 59 | 203 | 4.0 | 6.0 | 0.00 | 0.00 | 0.00 | 67 | 1019.7 |
| 20260509062716 | 59 | 203 | 3.0 | 6.0 | 0.00 | 0.00 | 0.00 | 67 | 1019.7 |
| 20260509061718 | 60 | 270 | 3.0 | 4.0 | 0.00 | 0.00 | 0.00 | 64 | 1019.8 |
| 20260509060738 | 61 | 293 | 1.0 | 3.0 | 0.00 | 0.00 | 0.00 | 63 | 1019.9 |
| 20260509055718 | 61 | 180 | 4.0 | 11.0 | 0.00 | 0.00 | 0.00 | 64 | 1019.8 |
| 20260509054718 | 62 | 270 | 8.0 | 12.0 | 0.00 | 0.00 | 0.00 | 63 | 1019.7 |
| 20260509053738 | 62 | 203 | 4.0 | 8.0 | 0.00 | 0.00 | 0.00 | 63 | 1019.6 |
| 20260509052718 | 63 | 180 | 6.0 | 10.0 | 0.00 | 0.00 | 0.00 | 61 | 1019.6 |
| 20260509051718 | 64 | 203 | 5.0 | 9.0 | 0.00 | 0.00 | 0.00 | 60 | 1019.8 |
| 20260509050718 | 64 | 270 | 6.0 | 9.0 | 0.00 | 0.00 | 0.00 | 60 | 1019.6 |
| 20260509045718 | 64 | 225 | 6.0 | 17.0 | 0.00 | 0.00 | 0.00 | 59 | 1019.7 |
| 20260509044718 | 65 | 248 | 3.0 | 6.0 | 0.00 | 0.00 | 0.00 | 58 | 1019.5 |
| 20260509043718 | 64 | 248 | 3.0 | 6.0 | 0.00 | 0.00 | 0.00 | 60 | 1019.3 |
| 20260509042718 | 64 | 158 | 4.0 | 7.0 | 0.00 | 0.00 | 0.00 | 60 | 1019.1 |
| 20260509041818 | 64 | 248 | 4.0 | 9.0 | 0.00 | 0.00 | 0.00 | 60 | 1019.1 |
| 20260509035718 | 63 | 270 | 4.0 | 7.0 | 0.00 | 0.00 | 0.00 | 62 | 1019.0 |
| 20260509034718 | 63 | 270 | 4.0 | 8.0 | 0.00 | 0.00 | 0.00 | 62 | 1019.2 |
| 20260509033738 | 62 | 203 | 4.0 | 8.0 | 0.00 | 0.00 | 0.00 | 64 | 1018.9 |
| 20260509032758 | 62 | 270 | 2.0 | 6.0 | 0.00 | 0.00 | 0.00 | 66 | 1019.0 |
| 20260509031718 | 62 | 293 | 3.0 | 5.0 | 0.00 | 0.00 | 0.00 | 65 | 1019.1 |
| 20260509030718 | 61 | 248 | 4.0 | 10.0 | 0.00 | 0.00 | 0.00 | 68 | 1019.1 |
| 20260509025718 | 61 | 248 | 4.0 | 7.0 | 0.00 | 0.00 | 0.00 | 69 | 1019.1 |
| 20260509024718 | 61 | 270 | 2.0 | 3.0 | 0.00 | 0.00 | 0.00 | 68 | 1019.1 |
| 20260509023738 | 61 | 270 | 4.0 | 12.0 | 0.00 | 0.00 | 0.00 | 68 | 1019.3 |
| 20260509022718 | 61 | 293 | 2.0 | 3.0 | 0.00 | 0.00 | 0.00 | 68 | 1019.3 |
| 20260509021738 | 61 | 293 | 3.0 | 4.0 | 0.00 | 0.00 | 0.00 | 68 | 1019.4 |
| 20260509020718 | 61 | 225 | 5.0 | 8.0 | 0.00 | 0.00 | 0.00 | 68 | 1019.6 |
| 20260509015718 | 61 | 203 | 3.0 | 4.0 | 0.00 | 0.00 | 0.00 | 68 | 1019.4 |
| 20260509014738 | 61 | 135 | 2.0 | 7.0 | 0.00 | 0.00 | 0.00 | 68 | 1019.5 |
| 20260509013718 | 61 | 225 | 2.0 | 4.0 | 0.00 | 0.00 | 0.00 | 68 | 1019.5 |
| 20260509012738 | 61 | 90 | 1.0 | 2.0 | 0.00 | 0.00 | 0.00 | 67 | 1019.7 |
| 20260509011718 | 61 | 68 | 5.0 | 9.0 | 0.00 | 0.00 | 0.00 | 66 | 1019.9 |
| 20260509010738 | 60 | 0.0 | 1.0 | 0.00 | 0.00 | 0.00 | 67 | 1019.8 | |
| 20260509005718 | 60 | 23 | 2.0 | 4.0 | 0.00 | 0.00 | 0.00 | 64 | 1019.7 |
| 20260509004718 | 60 | 135 | 2.0 | 4.0 | 0.00 | 0.00 | 0.00 | 64 | 1019.6 |
| 20260509003718 | 60 | 113 | 1.0 | 3.0 | 0.00 | 0.00 | 0.00 | 63 | 1019.4 |
| 20260509002718 | 61 | 270 | 1.0 | 2.0 | 0.00 | 0.00 | 0.00 | 59 | 1019.3 |
| 20260509001718 | 61 | 338 | 3.0 | 6.0 | 0.00 | 0.00 | 0.00 | 58 | 1019.3 |
| 20260509000717 | 61 | 113 | 1.0 | 2.0 | 0.00 | 0.00 | 0.00 | 59 | 1019.2 |
| 20260508235718 | 62 | 203 | 2.0 | 4.0 | 0.00 | 0.00 | 0.00 | 58 | 1019.4 |
| 20260508234718 | 61 | 0.0 | 2.0 | 0.00 | 0.00 | 0.00 | 58 | 1019.4 | |
| 20260508233718 | 60 | 45 | 1.0 | 3.0 | 0.00 | 0.00 | 0.00 | 59 | 1019.3 |
| 20260508232718 | 60 | 90 | 2.0 | 5.0 | 0.00 | 0.00 | 0.00 | 62 | 1019.3 |
| 20260508231718 | 59 | 113 | 1.0 | 3.0 | 0.00 | 0.00 | 0.00 | 63 | 1019.2 |
| 20260508230738 | 58 | 135 | 1.0 | 4.0 | 0.00 | 0.00 | 0.00 | 65 | 1019.1 |
| 20260508225718 | 57 | 293 | 1.0 | 2.0 | 0.00 | 0.00 | 0.00 | 69 | 1019.1 |
| 20260508224718 | 56 | 113 | 2.0 | 3.0 | 0.00 | 0.00 | 0.00 | 70 | 1019.0 |
| 20260508223718 | 55 | 113 | 3.0 | 6.0 | 0.00 | 0.00 | 0.00 | 74 | 1018.9 |
| 20260508222718 | 55 | 90 | 2.0 | 6.0 | 0.00 | 0.00 | 0.00 | 74 | 1018.9 |
| 20260508221718 | 55 | 248 | 2.0 | 3.0 | 0.00 | 0.00 | 0.00 | 74 | 1018.7 |
| 20260508220738 | 55 | 113 | 4.0 | 8.0 | 0.00 | 0.00 | 0.00 | 75 | 1018.4 |
| 20260508215738 | 55 | 113 | 2.0 | 3.0 | 0.00 | 0.00 | 0.00 | 75 | 1018.2 |
| 20260508214718 | 55 | 158 | 2.0 | 4.0 | 0.00 | 0.00 | 0.00 | 74 | 1018.0 |
| 20260508213718 | 55 | 113 | 4.0 | 8.0 | 0.00 | 0.00 | 0.00 | 76 | 1017.9 |
| 20260508212738 | 54 | 113 | 4.0 | 6.0 | 0.00 | 0.00 | 0.00 | 78 | 1017.8 |
| 20260508211717 | 54 | 113 | 3.0 | 6.0 | 0.00 | 0.00 | 0.00 | 78 | 1017.9 |
| 20260508210717 | 54 | 113 | 1.0 | 2.0 | 0.00 | 0.00 | 0.00 | 79 | 1017.7 |
| 20260508205738 | 54 | 90 | 3.0 | 4.0 | 0.00 | 0.00 | 0.00 | 78 | 1017.6 |
| 20260508204718 | 54 | 113 | 2.0 | 3.0 | 0.00 | 0.00 | 0.00 | 79 | 1017.6 |
| 20260508203718 | 54 | 113 | 3.0 | 4.0 | 0.00 | 0.00 | 0.00 | 79 | 1017.6 |
| 20260508202717 | 54 | 113 | 3.0 | 4.0 | 0.00 | 0.00 | 0.00 | 78 | 1017.3 |
| 20260508201737 | 54 | 135 | 2.0 | 7.0 | 0.00 | 0.00 | 0.00 | 78 | 1017.2 |
| 20260508200717 | 55 | 113 | 4.0 | 7.0 | 0.00 | 0.00 | 0.00 | 76 | 1017.0 |
| 20260508195717 | 56 | 90 | 3.0 | 7.0 | 0.00 | 0.01 | 0.00 | 75 | 1016.9 |
| 20260508194717 | 56 | 135 | 3.0 | 5.0 | 0.00 | 0.02 | 0.00 | 74 | 1016.8 |
| 20260508193717 | 56 | 135 | 2.0 | 2.0 | 0.00 | 0.02 | 0.00 | 74 | 1016.8 |
| 20260508192718 | 57 | 113 | 3.0 | 5.0 | 0.00 | 0.02 | 0.00 | 73 | 1016.8 |
| 20260508191718 | 57 | 113 | 1.0 | 4.0 | 0.00 | 0.02 | 0.00 | 73 | 1016.7 |
| 20260508190717 | 57 | 135 | 7.0 | 11.0 | 0.00 | 0.02 | 0.00 | 73 | 1016.4 |
| 20260508185718 | 56 | 203 | 3.0 | 5.0 | 0.00 | 0.02 | 0.00 | 74 | 1016.4 |
| 20260508184718 | 55 | 113 | 6.0 | 9.0 | 0.00 | 0.02 | 0.00 | 76 | 1016.4 |
| 20260508183718 | 55 | 90 | 2.0 | 4.0 | 0.00 | 0.02 | 0.00 | 76 | 1016.2 |
| 20260508182717 | 55 | 113 | 4.0 | 8.0 | 0.00 | 0.02 | 0.00 | 76 | 1016.4 |
| 20260508181717 | 55 | 113 | 5.0 | 11.0 | 0.00 | 0.02 | 0.00 | 76 | 1016.3 |
| 20260508180718 | 55 | 113 | 5.0 | 8.0 | 0.00 | 0.02 | 0.00 | 75 | 1016.1 |
| 20260508175718 | 55 | 113 | 6.0 | 9.0 | 0.00 | 0.02 | 0.00 | 74 | 1016.2 |
| 20260508174718 | 55 | 158 | 3.0 | 5.0 | 0.00 | 0.02 | 0.00 | 75 | 1016.1 |
| 20260508173718 | 55 | 135 | 1.0 | 7.0 | 0.00 | 0.02 | 0.00 | 76 | 1015.8 |
| 20260508172718 | 54 | 113 | 2.0 | 3.0 | 0.00 | 0.02 | 0.00 | 77 | 1016.0 |
| 20260508171718 | 53 | 113 | 1.0 | 3.0 | 0.00 | 0.02 | 0.00 | 77 | 1016.0 |
| 20260508170718 | 53 | 113 | 3.0 | 6.0 | 0.00 | 0.02 | 0.00 | 77 | 1016.0 |
| 20260508165717 | 54 | 113 | 4.0 | 7.0 | 0.00 | 0.02 | 0.00 | 77 | 1016.2 |
| 20260508164717 | 53 | 135 | 6.0 | 10.0 | 0.00 | 0.02 | 0.00 | 77 | 1016.0 |
| 20260508163718 | 53 | 135 | 4.0 | 9.0 | 0.00 | 0.02 | 0.00 | 77 | 1016.1 |
| 20260508162718 | 53 | 135 | 4.0 | 6.0 | 0.00 | 0.02 | 0.00 | 76 | 1016.3 |
| 20260508161717 | 54 | 135 | 3.0 | 6.0 | 0.00 | 0.02 | 0.00 | 75 | 1016.1 |
| 20260508160717 | 54 | 113 | 2.0 | 5.0 | 0.00 | 0.02 | 0.00 | 75 | 1016.0 |
| 20260508155718 | 54 | 113 | 3.0 | 4.0 | 0.00 | 0.02 | 0.00 | 75 | 1016.3 |
| 20260508154717 | 54 | 135 | 3.0 | 5.0 | 0.00 | 0.02 | 0.00 | 75 | 1016.3 |
| 20260508153717 | 54 | 135 | 3.0 | 6.0 | 0.00 | 0.03 | 0.00 | 75 | 1016.2 |
| 20260508152717 | 54 | 135 | 3.0 | 7.0 | 0.00 | 0.03 | 0.00 | 75 | 1016.0 |
| 20260508151718 | 53 | 113 | 2.0 | 6.0 | 0.00 | 0.03 | 0.00 | 77 | 1015.8 |
| 20260508150717 | 52 | 203 | 2.0 | 3.0 | 0.00 | 0.03 | 0.00 | 77 | 1016.1 |
| 20260508145717 | 52 | 293 | 2.0 | 5.0 | 0.00 | 0.03 | 0.00 | 77 | 1015.7 |
| 20260508144758 | 53 | 90 | 3.0 | 6.0 | 0.00 | 0.03 | 0.00 | 75 | 1016.0 |
| 20260508143717 | 54 | 180 | 2.0 | 3.0 | 0.00 | 0.03 | 0.00 | 74 | 1015.8 |
| 20260508142717 | 53 | 270 | 1.0 | 3.0 | 0.00 | 0.03 | 0.00 | 75 | 1016.0 |
| 20260508141717 | 53 | 135 | 1.0 | 2.0 | 0.00 | 0.03 | 0.00 | 76 | 1016.1 |
| 20260508140737 | 53 | 90 | 2.0 | 4.0 | 0.00 | 0.03 | 0.00 | 74 | 1016.1 |
| 20260508135717 | 53 | 113 | 2.0 | 5.0 | 0.00 | 0.03 | 0.03 | 74 | 1016.0 |
| 20260508134717 | 53 | 45 | 1.0 | 3.0 | 0.00 | 0.03 | 0.03 | 73 | 1016.2 |
| 20260508133737 | 54 | 135 | 3.0 | 4.0 | 0.00 | 0.03 | 0.03 | 72 | 1016.0 |
| 20260508132717 | 54 | 68 | 2.0 | 3.0 | 0.00 | 0.03 | 0.03 | 73 | 1016.4 |